Weather History for KTCS - February, 2013

Change the Weather History Date:

Sunday, February 24, 2013

  Actual Average Record
Temperature  
Mean Temperature 40 °F -  
Max Temperature 51 °F 61 °F 79 °F (2009)
Min Temperature 28 °F 35 °F 28 °F (1997)
Degree Days  
Heating Degree Days 25    
Month to date heating degree days 502  
Since 1 July heating degree days 2445  
Moisture  
Dew Point 16 °F    
Average Humidity 44    
Maximum Humidity 59    
Minimum Humidity 29    
Precipitation  
Precipitation T in - 0.23 in (2005)
Month to date precipitation 0.01  
Year to date precipitation 0.08  
Sea Level Pressure  
Sea Level Pressure 29.67 in    
Wind  
Wind Speed 14 mph (WNW)    
Max Wind Speed 39 mph    
Max Gust Speed 49 mph    
Visibility 9 miles    
Events Snow    
T = Trace of Precipitation, MM = Missing Value Source: NWS Daily Summary

Daily Weather History Graph

Daily Weather History Graph

Search for Another Location

Airport or City:

Trip Planner

Search our weather history database for the weather conditions in past years. The results will help you decide how hot, cold, wet, or windy it might be!

Date:

Astronomy

Feb. 24, 2013 Rise Set
Actual Time 6:42 AM MST 6:02 PM MST
Civil Twilight 6:17 AM MST 6:27 PM MST
Nautical Twilight 5:48 AM MST 6:55 PM MST
Astronomical Twilight 5:20 AM MST 7:24 PM MST
Moon 5:15 PM MST (2/24) 5:40 AM MST (2/24)
Length of Visible Light 12h 09m
Length of Day
11h 19m
Waxing Gibbous, 99% of the Moon is Illuminated
Feb 24
Waxing Gibbous
Feb 25
Full
Mar 4
Last Quarter
Mar 11
New
Mar 19
First Quarter

Hourly Weather History & Observations

Time (MST) Temp. Windchill Dew Point Humidity Pressure Visibility Wind Dir Wind Speed Gust Speed Precip Events Conditions
12:53 AM 42.1 °F 38.4 °F 12.0 °F 29% 29.65 in 10.0 mi Variable 5.8 mph - N/A   Clear
1:53 AM 39.9 °F 33.4 °F 12.9 °F 33% 29.64 in 10.0 mi WNW 10.4 mph - N/A   Clear
2:53 AM 41.0 °F 35.8 °F 14.0 °F 33% 29.60 in 10.0 mi West 8.1 mph - N/A   Clear
3:53 AM 39.0 °F 33.4 °F 14.0 °F 36% 29.59 in 10.0 mi NW 8.1 mph - N/A   Clear
4:53 AM 41.0 °F 36.4 °F 16.0 °F 36% 29.59 in 10.0 mi NW 6.9 mph 19.6 mph N/A   Clear
5:53 AM 36.0 °F 32.1 °F 16.0 °F 44% 29.62 in 10.0 mi Variable 4.6 mph - N/A   Clear
6:53 AM 36.0 °F 31.1 °F 16.0 °F 44% 29.65 in 10.0 mi NW 5.8 mph - N/A   Clear
7:53 AM 39.0 °F 36.8 °F 17.1 °F 41% 29.63 in 10.0 mi NNE 3.5 mph - N/A   Partly Cloudy
8:53 AM 42.1 °F 39.2 °F 17.1 °F 37% 29.63 in 10.0 mi Variable 4.6 mph - N/A   Mostly Cloudy
9:53 AM 46.9 °F - 17.1 °F 30% 29.56 in 10.0 mi SSE 11.5 mph - N/A   Scattered Clouds
10:53 AM 50.0 °F - 21.0 °F 32% 29.54 in 10.0 mi SW 29.9 mph 43.7 mph N/A   Mostly Cloudy
11:53 AM 50.0 °F - 19.9 °F 31% 29.55 in 10.0 mi SW 26.5 mph 40.3 mph N/A   Mostly Cloudy
12:53 PM 44.1 °F 36.2 °F 25.0 °F 47% 29.56 in 10.0 mi WSW 18.4 mph 25.3 mph 0.00 in   Scattered Clouds
1:53 PM 39.9 °F 29.5 °F 21.9 °F 49% 29.60 in 10.0 mi West 24.2 mph 31.1 mph N/A   Mostly Cloudy
2:53 PM 39.0 °F 29.6 °F 27.0 °F 62% 29.62 in 10.0 mi NW 18.4 mph 32.2 mph 0.00 in   Scattered Clouds
3:14 PM 35.6 °F 23.0 °F 26.6 °F 70% 29.69 in 4.0 mi WNW 27.6 mph 36.8 mph 0.00 in Snow Light Snow
3:22 PM 35.6 °F 24.2 °F 26.6 °F 70% 29.69 in 2.5 mi West 21.9 mph 32.2 mph 0.00 in Snow Light Snow
3:26 PM 35.6 °F 23.7 °F 24.8 °F 65% 29.69 in 5.0 mi WNW 24.2 mph 31.1 mph 0.00 in Snow Light Snow
3:53 PM 37.9 °F 27.6 °F 21.0 °F 51% 29.65 in 10.0 mi WNW 20.7 mph 27.6 mph 0.00 in   Mostly Cloudy
4:53 PM 36.0 °F 24.7 °F 15.1 °F 43% 29.69 in 10.0 mi NW 21.9 mph 32.2 mph N/A   Overcast
5:53 PM 35.1 °F 24.8 °F 10.0 °F 35% 29.75 in 10.0 mi NNW 17.3 mph 26.5 mph N/A   Mostly Cloudy
6:53 PM 34.0 °F 26.0 °F 10.0 °F 37% 29.78 in 10.0 mi NW 10.4 mph - N/A   Clear
7:53 PM 32.0 °F 24.2 °F 8.1 °F 37% 29.80 in 10.0 mi WNW 9.2 mph - N/A   Clear
8:53 PM 30.9 °F 19.1 °F 8.1 °F 38% 29.81 in 10.0 mi NW 18.4 mph 25.3 mph N/A   Clear
9:53 PM 28.9 °F 19.2 °F 10.0 °F 45% 29.82 in 10.0 mi NW 11.5 mph 24.2 mph N/A   Clear
10:53 PM 28.0 °F 16.1 °F 10.0 °F 47% 29.84 in 10.0 mi NW 16.1 mph 26.5 mph N/A   Clear
11:53 PM 28.9 °F 17.7 °F 10.0 °F 45% 29.86 in 10.0 mi NW 15.0 mph 24.2 mph N/A   Clear